Location: Unspecified
(0.0000°N, 0.0000°E)
Time: 19:07:00
(UTC+00:00)

deb Explorer IX - Pass Details

Date: 21 November 2019
Orbit: 545 x 1105 km, 38.8° (Epoch: 05 December)

Event Time Altitude Azimuth Distance (km) Brightness Sun altitude
Rises 08:41:17 0° 304° (NW) 2,759 ? 40.7°
Reaches altitude 10° 08:43:38 10° 299° (WNW) 1,828 ? 41.2°
Maximum altitude 08:47:39 55° 222° (SW) 654 ? 42.1°
Drops below altitude 10° 08:51:41 10° 143° (SE) 1,818 ? 43.0°
Sets 08:54:00 0° 138° (SE) 2,743 ? 43.5°
